Memphis, TN

5:09 AM CST on December 12, 2017 (GMT -0600)
Memphis International

Weather History for KMEM - March, 2013

Change the Weather History Date:

Monday, March 25, 2013

  Actual Average Record
Temperature  
Mean Temperature 38 °F 57 °F  
Max Temperature 42 °F 67 °F 84 °F (1910)
Min Temperature 33 °F 47 °F 25 °F (1940)
Degree Days  
Heating Degree Days 27 9  
Month to date heating degree days 422 308  
Since 1 July heating degree days 2620 2758  
Cooling Degree Days 0 1  
Month to date cooling degree days 2 10  
Year to date cooling degree days 11 13  
Moisture  
Dew Point 23 °F    
Average Humidity 55    
Maximum Humidity 64    
Minimum Humidity 46    
Precipitation  
Precipitation 0.00 in 0.18 in 2.02 in (1946)
Month to date precipitation 2.74 4.09  
Year to date precipitation 16.31 12.46  
Snow  
Snow 0.00 in 0.00 in T in (1971)
Month to date snowfall T 0.4  
Since 1 July snowfall 0.9 3.8  
Snow Depth 0.00 in    
Sea Level Pressure  
Sea Level Pressure 30.10 in    
Wind  
Wind Speed 16 mph (WNW)    
Max Wind Speed 28 mph    
Max Gust Speed 35 mph    
Visibility 10 miles    
Events      
T = Trace of Precipitation, MM = Missing Value Source: NWS Daily Summary

Daily Weather History Graph

Daily Weather History Graph

Search for Another Location

Airport or City:

Trip Planner

Search our weather history database for the weather conditions in past years. The results will help you decide how hot, cold, wet, or windy it might be!

Date:

Astronomy

Mar. 25, 2013 Rise Set
Actual Time 6:56 AM CDT 7:15 PM CDT
Civil Twilight 6:30 AM CDT 7:41 PM CDT
Nautical Twilight 6:01 AM CDT 8:10 PM CDT
Astronomical Twilight 5:31 AM CDT 8:41 PM CDT
Moon 5:49 PM CDT (3/25) 5:36 AM CDT (3/25)
Length of Visible Light 13h 10m
Length of Day
12h 19m
Waxing Gibbous, 96% of the Moon is Illuminated
Mar 25
Waxing Gibbous
Mar 27
Full
Apr 2
Last Quarter
Apr 10
New
Apr 18
First Quarter

Hourly Weather History & Observations

Time (CDT) Temp. Windchill Dew Point Humidity Pressure Visibility Wind Dir Wind Speed Gust Speed Precip Events Conditions
12:54 AM 37.0 °F 26.4 °F 25.0 °F 62% 29.97 in 10.0 mi WNW 20.7 mph 31.1 mph N/A   Overcast
1:54 AM 36.0 °F 25.3 °F 24.1 °F 62% 29.99 in 10.0 mi WNW 19.6 mph 34.5 mph N/A   Overcast
2:54 AM 35.1 °F 23.8 °F 23.0 °F 61% 29.98 in 10.0 mi NW 20.7 mph 27.6 mph N/A   Overcast
3:54 AM 35.1 °F 23.5 °F 21.0 °F 57% 29.98 in 10.0 mi WNW 21.9 mph 26.5 mph N/A   Overcast
4:19 AM 35.6 °F 24.5 °F 21.2 °F 56% 29.97 in 10.0 mi NW 20.7 mph 26.5 mph N/A   Overcast
4:54 AM 34.0 °F 25.5 °F 21.0 °F 59% 29.98 in 10.0 mi NW 11.5 mph 23.0 mph N/A   Overcast
5:54 AM 34.0 °F 22.4 °F 19.9 °F 56% 30.01 in 10.0 mi WNW 20.7 mph 28.8 mph N/A   Overcast
6:54 AM 34.0 °F 23.8 °F 21.0 °F 59% 30.03 in 10.0 mi WNW 16.1 mph 25.3 mph N/A   Overcast
7:54 AM 33.1 °F 23.0 °F 21.9 °F 64% 30.05 in 10.0 mi WNW 15.0 mph 21.9 mph N/A   Overcast
8:07 AM 33.8 °F 23.5 °F 21.2 °F 60% 30.05 in 10.0 mi WNW 16.1 mph 29.9 mph N/A   Mostly Cloudy
8:54 AM 35.1 °F 25.9 °F 21.9 °F 59% 30.07 in 10.0 mi West 13.8 mph - N/A   Partly Cloudy
9:54 AM 37.0 °F 26.7 °F 23.0 °F 57% 30.08 in 10.0 mi WNW 19.6 mph 27.6 mph N/A   Partly Cloudy
10:54 AM 37.9 °F 27.9 °F 23.0 °F 55% 30.10 in 10.0 mi West 19.6 mph 26.5 mph N/A   Scattered Clouds
11:02 AM 39.2 °F 29.0 °F 23.0 °F 52% 30.10 in 10.0 mi WNW 21.9 mph 26.5 mph N/A   Mostly Cloudy
11:36 AM 39.2 °F 29.3 °F 21.2 °F 49% 30.11 in 10.0 mi WNW 20.7 mph 27.6 mph N/A   Overcast
11:48 AM 37.4 °F 28.9 °F 21.2 °F 52% 30.12 in 10.0 mi NW 13.8 mph 25.3 mph N/A   Overcast
11:54 AM 37.9 °F 29.6 °F 21.9 °F 53% 30.12 in 10.0 mi WNW 13.8 mph 20.7 mph N/A   Overcast
12:19 PM 41.0 °F 31.9 °F 23.0 °F 49% 30.12 in 10.0 mi WNW 19.6 mph 27.6 mph N/A   Overcast
12:54 PM 41.0 °F 32.2 °F 23.0 °F 49% 30.12 in 10.0 mi NW 18.4 mph 25.3 mph N/A   Overcast
1:54 PM 39.9 °F 30.5 °F 23.0 °F 51% 30.12 in 10.0 mi NW 19.6 mph 29.9 mph N/A   Overcast
2:54 PM 39.9 °F 30.0 °F 23.0 °F 51% 30.13 in 10.0 mi NW 21.9 mph 27.6 mph N/A   Overcast
3:54 PM 41.0 °F 32.8 °F 23.0 °F 49% 30.14 in 10.0 mi NW 16.1 mph 25.3 mph N/A   Overcast
4:54 PM 39.0 °F 30.3 °F 21.9 °F 50% 30.15 in 10.0 mi NW 16.1 mph 29.9 mph N/A   Overcast
5:54 PM 39.0 °F 30.6 °F 21.9 °F 50% 30.17 in 10.0 mi NW 15.0 mph - N/A   Overcast
6:54 PM 37.9 °F 29.6 °F 23.0 °F 55% 30.19 in 10.0 mi NW 13.8 mph - N/A   Overcast
7:54 PM 37.0 °F 29.3 °F 23.0 °F 57% 30.21 in 10.0 mi NW 11.5 mph - N/A   Overcast
8:54 PM 37.0 °F 29.3 °F 23.0 °F 57% 30.22 in 10.0 mi NW 11.5 mph - N/A   Overcast
9:54 PM 37.0 °F 29.8 °F 23.0 °F 57% 30.24 in 10.0 mi NW 10.4 mph - N/A   Overcast
10:54 PM 37.0 °F 29.8 °F 24.1 °F 59% 30.25 in 10.0 mi NW 10.4 mph 19.6 mph N/A   Overcast
11:54 PM 37.0 °F 28.5 °F 24.1 °F 59% 30.26 in 10.0 mi NW 13.8 mph 23.0 mph N/A   Overcast